KC7NGC-B Weather Reports


Display with metric or nautical units.
time (UTC)temp
F
wind
direction
speed
MPH
gust
MPH
rain 1hr
in
rain 24hr
in
rain mn
in
humidity
%
barometer
mb
20260508084622 59 198 6.0 12.0 0.00 0.00 0.00 31 1014.9
20260508083635 59 213 7.0 10.0 0.00 0.00 0.00 30 1014.7
20260508082635 61 217 13.0 19.0 0.00 0.00 0.00 27 1014.7
20260508081634 60 188 8.0 12.0 0.00 0.00 0.00 27 1014.7
20260508080631 60 194 7.0 12.0 0.00 0.00 0.00 25 1014.5
20260508075627 61 206 7.0 11.0 0.00 0.00 0.00 25 1014.9
20260508074624 61 206 6.0 11.0 0.00 0.00 0.00 26 1014.8
20260508073624 62 211 6.0 11.0 0.00 0.00 0.00 27 1014.8
20260508072620 63 222 2.0 4.0 0.00 0.00 0.00 26 1014.7
20260508071617 63 182 3.0 5.0 0.00 0.00 0.00 24 1014.9
20260508070639 64 202 5.0 7.0 0.00 0.00 0.00 25 1014.5
20260508065633 64 259 5.0 9.0 0.00 0.00 0.00 25 1014.7
20260508064632 64 221 5.0 8.0 0.00 0.00 0.00 26 1014.1
20260508063632 64 201 8.0 12.0 0.00 0.00 0.00 25 1014.0
20260508062626 64 214 6.0 14.0 0.00 0.00 0.00 26 1014.0
20260508061624 65 212 9.0 12.0 0.00 0.00 0.00 26 1013.8
20260508060630 65 217 12.0 17.0 0.00 0.00 0.00 26 1013.8
20260508055622 65 206 7.0 12.0 0.00 0.00 0.00 28 1014.0
20260508054622 66 214 9.0 13.0 0.00 0.00 0.00 28 1013.9
20260508053635 66 212 9.0 13.0 0.00 0.00 0.00 28 1014.0
20260508052656 66 217 14.0 19.0 0.00 0.00 0.00 27 1014.1
20260508051630 66 216 9.0 19.0 0.00 0.00 0.00 26 1013.9
20260508050631 66 209 11.0 15.0 0.00 0.00 0.00 27 1014.1
20260508045649 67 203 7.0 10.0 0.00 0.00 0.00 28 1013.9
20260508044623 67 211 6.0 12.0 0.00 0.00 0.00 29 1014.1
20260508043624 68 199 7.0 10.0 0.00 0.00 0.00 30 1014.1
20260508042626 69 218 3.0 5.0 0.00 0.00 0.00 33 1014.1
20260508041639 70 232 2.0 3.0 0.00 0.00 0.00 32 1014.0
20260508040637 70 189 4.0 6.0 0.00 0.00 0.00 30 1014.0
20260508035633 71 86 1.0 2.0 0.00 0.00 0.00 30 1014.1
20260508034635 71 185 1.0 3.0 0.00 0.00 0.00 28 1013.9
20260508033627 70 188 2.0 3.0 0.00 0.00 0.00 34 1013.9
20260508032629 71 192 1.0 2.0 0.00 0.00 0.00 34 1013.9
20260508031626 71 185 2.0 4.0 0.00 0.00 0.00 33 1014.0
20260508030620 72 177 1.0 2.0 0.00 0.00 0.00 33 1013.8
20260508025621 72 184 2.0 2.0 0.00 0.00 0.00 33 1013.9
20260508024637 73 202 2.0 3.0 0.00 0.00 0.00 32 1013.8
20260508023640 73 212 3.0 4.0 0.00 0.00 0.00 31 1014.0
20260508022630 73 219 2.0 4.0 0.00 0.00 0.00 32 1014.0
20260508021634 74 210 2.0 3.0 0.00 0.00 0.00 31 1014.0
20260508020630 74 197 3.0 4.0 0.00 0.00 0.00 30 1014.0
20260508015630 75 201 3.0 4.0 0.00 0.00 0.00 29 1014.2
20260508014622 75 188 5.0 6.0 0.00 0.00 0.00 26 1014.0
20260508013620 76 184 5.0 6.0 0.00 0.00 0.00 26 1013.9
20260508012621 77 202 4.0 5.0 0.00 0.00 0.00 24 1014.0
20260508011655 77 278 2.0 3.0 0.00 0.00 0.00 24 1014.2
20260508010638 76 146 2.0 2.0 0.00 0.00 0.00 24 1014.1
20260508005633 77 188 3.0 6.0 0.00 0.00 0.00 23 1014.0
20260508004636 77 57 2.0 3.0 0.00 0.00 0.00 23 1014.1
20260508003634 77 219 1.0 2.0 0.00 0.00 0.00 23 1014.2
20260508002651 77 242 3.0 4.0 0.00 0.00 0.00 24 1014.4
20260508001628 76 200 3.0 4.0 0.00 0.00 0.00 24 1014.4
20260508000624 76 188 5.0 6.0 0.00 0.00 0.00 25 1014.4
20260507235619 76 261 3.0 5.0 0.00 0.00 0.00 24 1014.5
20260507234635 76 353 1.0 3.0 0.00 0.00 0.00 24 1014.6
20260507233639 75 193 1.0 4.0 0.00 0.00 0.00 24 1014.8
20260507232634 75 83 1.0 2.0 0.00 0.00 0.00 25 1014.7
20260507231632 76 92 3.0 5.0 0.00 0.00 0.00 25 1014.8
20260507230629 76 199 3.0 5.0 0.00 0.00 0.00 25 1015.0
20260507225629 76 262 2.0 5.0 0.00 0.00 0.00 24 1015.0
20260507224621 77 192 3.0 4.0 0.00 0.00 0.00 25 1015.2
20260507223701 76 75 3.0 6.0 0.00 0.00 0.00 26 1015.3
20260507222618 75 210 2.0 4.0 0.00 0.00 0.00 25 1015.5
20260507221719 75 195 3.0 4.0 0.00 0.00 0.00 26 1015.7
20260507220637 75 171 4.0 6.0 0.00 0.00 0.00 25 1015.8
20260507215630 75 172 6.0 7.0 0.00 0.00 0.00 25 1015.8
20260507214629 74 230 3.0 5.0 0.00 0.00 0.00 27 1016.0
20260507213628 74 183 8.0 11.0 0.00 0.00 0.00 27 1016.2
20260507212646 75 195 5.0 8.0 0.00 0.00 0.00 28 1016.2
20260507211625 73 323 5.0 6.0 0.00 0.00 0.00 27 1016.3
20260507210619 73 188 3.0 5.0 0.00 0.00 0.00 27 1016.4
20260507205620 73 197 4.0 5.0 0.00 0.00 0.00 30 1016.4
20260507204635 73 185 7.0 12.0 0.00 0.00 0.00 30 1016.7
20260507203633 73 189 8.0 11.0 0.00 0.00 0.00 29 1017.0
20260507202633 72 193 5.0 9.0 0.00 0.00 0.00 31 1016.8
20260507201629 71 151 4.0 5.0 0.00 0.00 0.00 31 1016.9
20260507200651 72 180 7.0 11.0 0.00 0.00 0.00 28 1016.9
20260507195625 71 189 5.0 9.0 0.00 0.00 0.00 34 1016.9
20260507194621 71 195 7.0 9.0 0.00 0.00 0.00 33 1017.2
20260507193625 70 181 4.0 9.0 0.00 0.00 0.00 33 1017.0
20260507192622 71 171 8.0 11.0 0.00 0.00 0.00 34 1017.0
20260507191636 70 186 7.0 11.0 0.00 0.00 0.00 34 1017.3
20260507190639 69 180 8.0 15.0 0.00 0.00 0.00 35 1017.1
20260507185638 69 188 7.0 12.0 0.00 0.00 0.00 37 1017.2
20260507184650 68 228 5.0 10.0 0.00 0.00 0.00 37 1017.4
20260507183631 69 180 8.0 13.0 0.00 0.00 0.00 37 1017.3
20260507182625 68 215 5.0 10.0 0.00 0.00 0.00 40 1017.5
20260507181623 67 177 4.0 5.0 0.00 0.00 0.00 43 1017.4
20260507180625 67 184 8.0 11.0 0.00 0.00 0.00 42 1017.5
20260507175622 66 173 5.0 8.0 0.00 0.00 0.00 42 1017.6
20260507174634 67 198 4.0 6.0 0.00 0.00 0.00 44 1017.5
20260507173639 66 208 6.0 10.0 0.00 0.00 0.00 46 1017.7
20260507172631 65 183 6.0 8.0 0.00 0.00 0.00 45 1017.8
20260507171629 66 216 4.0 7.0 0.00 0.00 0.00 44 1017.8
20260507170629 65 196 4.0 5.0 0.00 0.00 0.00 46 1017.8
20260507165646 65 273 7.0 8.0 0.00 0.00 0.00 44 1017.9
20260507164621 65 228 5.0 7.0 0.00 0.00 0.00 45 1017.8
20260507163625 65 263 4.0 6.0 0.00 0.00 0.00 44 1018.0
20260507162619 65 238 6.0 9.0 0.00 0.00 0.00 43 1017.8
20260507161658 64 237 4.0 6.0 0.00 0.00 0.00 43 1017.7
20260507160634 65 267 5.0 8.0 0.00 0.00 0.00 42 1017.7
20260507155632 64 224 4.0 6.0 0.00 0.00 0.00 43 1017.8
20260507154630 63 262 2.0 4.0 0.00 0.00 0.00 45 1017.7
20260507153627 63 249 3.0 5.0 0.00 0.00 0.00 43 1017.6
20260507152650 62 314 4.0 6.0 0.00 0.00 0.00 44 1017.6
20260507151626 62 325 6.0 8.0 0.00 0.00 0.00 46 1017.6
20260507150619 61 327 3.0 4.0 0.00 0.00 0.00 50 1017.3
20260507145617 61 222 3.0 4.0 0.00 0.00 0.00 51 1017.3
20260507144638 61 266 3.0 6.0 0.00 0.00 0.00 54 1017.4
20260507143638 60 266 3.0 5.0 0.00 0.00 0.00 56 1017.3
20260507142629 60 234 3.0 4.0 0.00 0.00 0.00 57 1017.3
20260507141633 59 0.0 0.0 0.00 0.00 0.00 60 1017.3
20260507140625 58 49 3.0 4.0 0.00 0.00 0.00 66 1017.2
20260507135629 57 347 1.0 2.0 0.00 0.00 0.00 66 1017.1
20260507134623 58 333 4.0 4.0 0.00 0.00 0.00 62 1017.0
20260507133620 56 295 1.0 2.0 0.00 0.00 0.00 70 1016.8
20260507132620 55 234 2.0 5.0 0.00 0.00 0.00 71 1016.5
20260507131635 55 230 3.0 3.0 0.00 0.00 0.00 73 1016.7
20260507130655 55 202 3.0 4.0 0.00 0.00 0.00 73 1016.6
20260507125630 54 181 3.0 4.0 0.00 0.00 0.00 73 1016.6
20260507124631 54 200 5.0 7.0 0.00 0.00 0.00 76 1016.4
20260507123629 52 303 3.0 4.0 0.00 0.00 0.00 75 1016.6
20260507122623 53 322 2.0 3.0 0.00 0.00 0.00 73 1016.5
20260507121623 54 220 3.0 4.0 0.00 0.00 0.00 71 1016.3
20260507120621 54 350 2.0 3.0 0.00 0.00 0.00 71 1016.4
20260507115637 55 230 1.0 4.0 0.00 0.00 0.00 70 1016.3
20260507114640 54 209 4.0 7.0 0.00 0.00 0.00 68 1016.0
20260507113637 54 9 1.0 2.0 0.00 0.00 0.00 70 1016.2
20260507112631 55 187 3.0 7.0 0.00 0.00 0.00 67 1016.2
20260507111629 55 229 3.0 4.0 0.00 0.00 0.00 66 1016.5
20260507110629 55 0.0 1.0 0.00 0.00 0.00 68 1016.3
20260507105626 56 16 1.0 2.0 0.00 0.00 0.00 66 1016.4
20260507104641 56 182 2.0 3.0 0.00 0.00 0.00 65 1016.2
20260507103622 57 229 5.0 8.0 0.00 0.00 0.00 66 1016.2
20260507102638 57 200 5.0 9.0 0.00 0.00 0.00 65 1016.2
20260507101633 57 213 2.0 4.0 0.00 0.00 0.00 63 1016.2
20260507100632 57 56 3.0 3.0 0.00 0.00 0.00 64 1016.1
20260507095637 59 227 5.0 6.0 0.00 0.00 0.00 60 1016.0
20260507094636 58 235 4.0 6.0 0.00 0.00 0.00 59 1015.8
20260507093624 59 216 1.0 2.0 0.00 0.00 0.00 58 1016.0
20260507092624 60 207 3.0 4.0 0.00 0.00 0.00 56 1015.9
20260507091622 60 211 5.0 7.0 0.00 0.00 0.00 57 1016.1
20260507090618 60 212 5.0 6.0 0.00 0.00 0.00 56 1016.1
20260507085634 60 246 5.0 6.0 0.00 0.00 0.00 59 1016.0